FW6082 Weather Reports


time (UTC)temp
C
wind
direction
speed
KPH
gust
KPH
rain 1hr
cm
rain 24hr
cm
rain mn
cm
humidity
%
barometer
mb
20260507014524 13 145 11.3 30.6 0.00 0.00 0.00 60 1015.3
20260507013032 14 115 8.0 24.1 0.00 0.00 0.00 59 1015.4
20260507011530 15 159 11.3 27.4 0.00 0.00 0.00 56 1015.4
20260507010015 15 148 12.9 25.7 0.00 0.00 0.00 54 1015.3
20260507004517 15 140 9.7 25.7 0.00 0.00 0.00 52 1015.0
20260507003013 15 188 8.0 19.3 0.00 0.00 0.00 50 1014.9
20260507001513 15 175 12.9 30.6 0.00 0.00 0.00 48 1015.0
20260507000023 15 151 9.7 25.7 0.00 0.00 0.00 49 1014.7
20260506234512 15 81 8.0 27.4 0.00 0.00 0.00 47 1014.4
20260506233016 16 175 12.9 33.8 0.00 0.00 0.00 44 1014.5
20260506231513 16 170 6.4 20.9 0.00 0.00 0.00 40 1014.4
20260506230010 17 170 9.7 22.5 0.00 0.00 0.00 39 1014.5
20260506224509 17 132 16.1 25.7 0.00 0.00 0.00 37 1014.5
20260506223008 17 144 11.3 25.7 0.00 0.00 0.00 34 1014.1
20260506221510 17 105 11.3 30.6 0.00 0.00 0.00 34 1013.9
20260506220008 18 157 11.3 27.4 0.00 0.00 0.00 32 1014.0
20260506214506 18 72 14.5 25.7 0.00 0.00 0.00 31 1014.1
20260506213010 18 151 12.9 25.7 0.00 0.00 0.00 30 1014.2
20260506211505 19 170 11.3 20.9 0.00 0.00 0.00 30 1014.0
20260506210004 19 147 11.3 25.7 0.00 0.00 0.00 29 1014.0
20260506204505 20 161 12.9 24.1 0.00 0.00 0.00 28 1014.2
20260506203002 20 161 11.3 25.7 0.00 0.00 0.00 29 1014.3
20260506201502 21 150 11.3 24.1 0.00 0.00 0.00 29 1014.3
20260506200001 21 211 14.5 30.6 0.00 0.00 0.00 29 1014.1
20260506194615 21 142 14.5 30.6 0.00 0.00 0.00 30 1014.1
20260506193059 21 120 12.9 29.0 0.00 0.00 0.00 30 1013.6
20260506191600 22 204 14.5 32.2 0.00 0.00 0.00 29 1013.4
20260506190057 22 196 14.5 25.7 0.00 0.00 0.00 28 1013.7
20260506184556 22 149 11.3 25.7 0.00 0.00 0.00 27 1013.6
20260506183055 22 139 12.9 27.4 0.00 0.00 0.00 27 1013.5
20260506181554 22 126 11.3 27.4 0.00 0.00 0.00 26 1013.3
20260506180104 22 120 16.1 25.7 0.00 0.00 0.00 26 1013.5
20260506174552 22 148 12.9 27.4 0.00 0.00 0.00 25 1013.4
20260506173106 22 189 12.9 25.7 0.00 0.00 0.00 24 1013.5
20260506171557 22 117 16.1 22.5 0.00 0.00 0.00 25 1013.5
20260506170047 22 124 17.7 30.6 0.00 0.00 0.00 26 1014.3
20260506164545 22 180 14.5 24.1 0.00 0.00 0.00 26 1014.1
20260506163048 22 101 12.9 22.5 0.00 0.00 0.00 25 1014.0
20260506161552 22 115 9.7 20.9 0.00 0.00 0.00 23 1013.9
20260506160039 22 154 9.7 22.5 0.00 0.00 0.00 24 1014.5
20260506154535 21 119 3.2 14.5 0.00 0.00 0.00 29 1015.0
20260506153030 20 272 3.2 9.7 0.00 0.00 0.00 34 1015.5
20260506151527 19 211 0.0 1.6 0.00 0.00 0.00 36 1016.2
20260506150025 18 17 0.0 8.0 0.00 0.00 0.00 38 1016.6
20260506144518 17 266 3.2 9.7 0.00 0.00 0.00 40 1017.2
20260506143015 16 160 1.6 12.9 0.00 0.00 0.00 43 1017.5
20260506141512 16 297 1.6 12.9 0.00 0.00 0.00 46 1017.6
20260506140007 15 238 3.2 8.0 0.00 0.00 0.00 49 1017.7
20260506134510 14 119 3.2 12.9 0.00 0.00 0.00 51 1017.7
20260506133002 14 170 6.4 14.5 0.00 0.00 0.00 51 1017.4
20260506131611 15 240 3.2 11.3 0.00 0.00 0.00 48 1017.1
20260506130055 14 228 3.2 17.7 0.00 0.00 0.00 51 1016.9
20260506124551 11 75 1.6 6.4 0.00 0.00 0.00 58 1016.8
20260506123047 11 290 3.2 6.4 0.00 0.00 0.00 59 1016.4
20260506121544 11 345 0.0 1.6 0.00 0.00 0.00 59 1016.3
20260506120041 11 336 0.0 3.2 0.00 0.00 0.00 59 1016.2
20260506114545 11 59 0.0 8.0 0.00 0.00 0.00 61 1015.9
20260506113038 10 266 0.0 4.8 0.00 0.00 0.00 63 1016.0
20260506111533 8 192 1.6 11.3 0.00 0.00 0.00 65 1015.6
20260506110032 5 278 0.0 0.0 0.00 0.00 0.00 71 1015.3
20260506104529 6 278 0.0 3.2 0.00 0.00 0.00 70 1015.2
20260506103029 6 278 0.0 4.8 0.00 0.00 0.00 72 1014.9
20260506101527 6 301 0.0 3.2 0.00 0.00 0.00 70 1014.6
20260506100032 6 331 0.0 0.0 0.00 0.00 0.00 71 1014.5
20260506094524 6 331 1.6 4.8 0.00 0.00 0.00 71 1014.5
20260506093021 7 287 0.0 3.2 0.00 0.00 0.00 68 1014.5
20260506091521 7 296 0.0 0.0 0.00 0.00 0.00 66 1014.6
20260506090020 8 294 0.0 3.2 0.00 0.00 0.00 64 1014.7
20260506084519 8 313 0.0 3.2 0.00 0.00 0.00 67 1014.6
20260506083019 7 289 1.6 4.8 0.00 0.00 0.00 66 1014.8
20260506081522 8 332 0.0 4.8 0.00 0.00 0.00 65 1015.0
20260506073016 11 115 0.0 4.8 0.00 0.00 0.00 58 1014.7
20260506071514 10 221 0.0 8.0 0.00 0.00 0.00 61 1014.6
20260506061505 7 292 0.0 3.2 0.00 0.00 0.00 66 1013.8
20260506050105 7 292 0.0 1.6 0.00 0.00 0.00 68 1014.3
20260506044557 7 292 0.0 1.6 0.00 0.00 0.00 67 1014.4
20260506043057 7 292 0.0 4.8 0.00 0.00 0.00 68 1014.5
20260506041552 7 263 0.0 0.0 0.00 0.00 0.00 68 1014.8
20260506040048 8 263 0.0 0.0 0.00 0.00 0.00 67 1015.0
20260506034551 8 263 0.0 0.0 0.00 0.00 0.00 67 1015.0
20260506033045 8 263 0.0 0.0 0.00 0.00 0.00 65 1015.1
20260506031544 9 263 0.0 0.0 0.00 0.00 0.00 65 1015.0
20260506030044 9 263 0.0 1.6 0.00 0.00 0.00 63 1015.0
20260506024550 10 263 0.0 0.0 0.00 0.00 0.00 62 1014.9
20260506023042 10 263 0.0 0.0 0.00 0.00 0.00 62 1014.8
20260506021539 10 263 0.0 4.8 0.00 0.00 0.00 60 1014.6
20260506020041 10 222 0.0 0.0 0.00 0.00 0.00 62 1014.4